www.pogodaiklimat.ru

Погода и климат >> Архив погоды >> Аргентина >> Ла-Риоха


ПОГОДА в Ла-Риохе

  • Прогноз погоды в Ла-Риохе
  • Монитор погоды в Ла-Риохе

АРХИВ ПОГОДЫ в Ла-Риохе

Время (UTC), дата Ветер
(напр.,м/с)
 
Видим.   Явления Облачность Т
(С)
Тd
(С)
f
(%)
Тe
(С)
Тes
(С)
Комфортность P
(гПа)
Po
(гПа)
Тmin
(С)
Tmax
(С)
R
(мм)
R24
(мм)
S
(см)
06 11.07 Ю 4 20 км ясно +11.4 +6.5 72 +9 +9 1011.0 961.4
09 11.07 З 1 20 км ясно +11.4 +6.5 72 +11 +11 1009.5 960.4
12 11.07 З 1 20 км ясно +7.0 +5.3 89 +6 +6 1010.1 959.4 +5.9 +13.4
15 11.07 С 1 20 км 1/0
[Ci sp]
+18.8 +9.2 54 +20 +29 1008.6 958.8
18 11.07 Ю 1 20 км 4/0
[Ac As Cs]
+22.8 +8.6 40 +24 +31 комфорт 1006.2 957.0
21 11.07 штиль 0 8000 м дым 5/0
[Ac As Cs]
+21.8 +10.5 49 +24 +24 комфорт 1005.4 956.1
00 12.07 З 1 20 км 3/0
[Cs]
+12.9 +8.4 74 +13 +13 1010.3 959.7 +6.9 +23.5
03 12.07 ЮЗ 3 20 км ясно +15.4 +5.0 50 +15 +15 1011.8 962.2
06 12.07 З 1 20 км 8/8 1500 м
[Sc]
+12.3 +6.2 66 +12 +12 1013.0 963.4
09 12.07 ЮЗ 3 20 км 8/8 1500 м
[Sc]
+14.7 +7.5 62 +14 +14 1013.2 963.8
12 12.07 ЮВ 1 15 км дым 6/6 1500 м
[Sc]
+11.8 +8.3 79 +12 +12 1016.4 965.8 +11.8 +16.2
15 12.07 ЮВ 3 15 км дым 6/3 1500 м
[Sc Ac trans]
+15.5 +7.1 57 +15 +19 1017.7 967.6
18 12.07 Ю 3 15 км мгла 6/3 1500 м
[Cu hum Ci]
+19.6 +8.9 50 +21 +25 комфорт 1014.0 964.2
21 12.07 З 1 15 км мгла 4/4 1500 м
[Sc]
+19.7 +9.7 52 +22 +22 комфорт 1013.0 963.4
00 13.07 штиль 0 20 км 4/4 1500 м
[Sc]
+12.4 +8.1 75 +12 +12 1015.8 965.3 +11.7 +21.0
03 13.07 штиль 0 15 км дым 9/9 1500 м
[Sc]
+13.0 +8.3 73 +13 +13 1016.1 965.8
06 13.07 штиль 0 20 км 8/8 1500 м
[Sc]
+12.4 +8.5 77 +12 +12 1014.7 964.9
09 13.07 З 3 20 км 3/3 1500 м
[Sc]
+9.0 +6.9 87 +7 +7 1013.8 963.7
12 13.07 ЮЗ 3 20 км 6/0
[Ac As Ci sp]
+12.0 +6.7 70 +11 +11 1013.7 963.3 +7.8 +13.6
15 13.07 Ю 4 20 км 6/0
[Ac As Ci sp]
+17.0 +8.3 57 +17 +20 1013.6 963.7
18 13.07 Ю 3 20 км 9/5 1500 м
[Sc Ac As]
+18.0 +8.7 55 +18 +20 1010.9 961.0
21 13.07 ЮВ 1 20 км 10/0
[Ac As]
+17.5 +9.6 60 +19 +19 1011.7 961.6
00 14.07 штиль 0 20 км 10/8 1500 м
[Sc Ac As]
+14.7 +10.3 75 +14 +14 1015.8 965.8 +12.0 +19.6
03 14.07 штиль 0 20 км 10/8 1500 м
[Sc Ac As]
+14.3 +10.4 77 +14 +14 1017.7 967.7
06 14.07 З 3 20 км 8/5 1500 м
[Sc Ac As]
+11.4 +9.5 88 +10 +10 1017.1 966.9
09 14.07 З 1 20 км ясно +7.3 +6.5 95 +6 +6 1016.1 965.9
12 14.07 ЮЗ 1 20 км 4/0
[Ci]
+7.0 +5.7 91 +6 +6 1016.8 966.0 +6.7 +16.0
15 14.07 СВ 3 15 км дым 3/0
[Ci]
+16.6 +8.7 60 +16 +22 1016.1 966.1
18 14.07 СВ 4 20 км 3/0
[Ci sp]
+22.1 +10.2 47 +24 +28 комфорт 1012.7 963.0
21 14.07 В 4 15 км мгла 4/0
[Ci sp]
+21.5 +10.9 51 +23 +24 комфорт 1012.3 962.2
00 15.07 З 1 20 км ясно +13.0 +8.8 76 +13 +13 1015.4 964.5 +7.0 +22.7
03 15.07 З 1 20 км ясно +13.3 +8.0 70 +14 +14 1017.3 967.2
06 15.07 З 1 20 км 8/8 1500 м
[Sc]
+13.3 +8.7 74 +14 +14 1018.3 968.6
09 15.07 штиль 0 50 км ?/? +11.3 +8.6 83 +11 +11 1019.4 969.4
12 15.07 штиль 0 20 км ясно +7.5 +6.0 90 +7 +7 1022.7 971.4 +6.7 +13.6
15 15.07 ЮВ 1 15 км дым {метель} 8/8 1500 м
[Cu Sc]
+17.2 +10.5 65 +18 +20 1023.2 972.8
18 15.07 штиль 0 20 км 6/6 1500 м
[Cu Sc]
+19.6 +11.9 61 +21 +25 комфорт 1020.5 970.5
21 15.07 СЗ 3 20 км 8/8 1500 м
[Sc]
+19.4 +10.0 55 +21 +21 комфорт 1019.6 969.4
00 16.07 СВ 1 12 км дым 9/9 1500 м
[Sc]
+16.8 +11.8 72 +18 +18 1021.4 970.6 +7.4 +20.4
03 16.07 З 1 15 км дым 3/0
[Ci]
+10.6 +8.2 85 +10 +10 1021.7 971.2
06 16.07 З 2 20 км 4/4 1500 м
[Sc]
+9.6 +7.2 85 +8 +8 1020.3 970.0
09 16.07 З 2 20 км 4/4 1500 м
[Sc]
+7.5 +6.4 93 +5 +5 1018.3 967.8
12 16.07 З 1 20 км 3/0
[Ac As Ci sp]
+6.4 +5.1 91 +5 +6 1017.8 967.0 +5.1 +16.8
15 16.07 ЮЗ 1 20 км 1/1 1500 м
[Cu hum]
+17.0 +9.2 60 +18 +26 1017.0 966.6
18 16.07 ЮЗ 1 20 км 1/1 1500 м
[Cu hum]
+21.0 +10.3 50 +24 +32 комфорт 1013.4 963.4
21 16.07 ЮВ 1 8000 м мгла 1/0
[]
+22.0 +10.8 49 +24 +24 комфорт 1013.1 963.0
00 17.07 З 1 15 км дым ясно +13.0 +9.7 80 +13 +13 1016.3 965.3 +6.3 +22.5
03 17.07 З 1 15 км дым ясно +10.8 +8.0 83 +10 +10 1016.7 966.4
06 17.07 ЮЗ 1 15 км дым ясно +8.6 +6.7 88 +8 +8 1016.4 966.3
09 17.07 ЮЗ 1 20 км ясно +7.2 +5.5 89 +6 +6 1015.7 965.6
12 17.07 штиль 0 20 км ясно +5.4 +4.5 94 +4 +5 1016.9 965.8 +5.4 +13.0
15 17.07 ЮЗ 1 20 км ясно +16.5 +9.7 64 +17 +26 1015.7 965.4
18 17.07 В 1 15 км дым ясно +22.1 +10.7 48 +24 +32 комфорт 1012.2 962.4
21 17.07 В 1 15 км дым 4/0
[Cs]
+23.5 +11.2 46 +25 +25 комфорт 1009.9 960.2
00 18.07 З 1 20 км 5/0
[Cs]
+13.5 +10.1 80 +14 +14 1011.3 960.5 +5.3 +24.5
03 18.07 З 1 20 км 10/0
[Cs]
+13.5 +9.3 76 +14 +14 1010.2 960.4

 

Местоположение метеостанции Ла-Риоха (Аргентина): широта -29.38 долгота -66.81 высота над уровнем моря 429 м.

В архиве по умолчанию представлена погода в Ла-Риохе за последнюю неделю. Архивные данные за месяц целиком и за предыдущие месяцы, начиная с января 2011 года, Вы можете получить, выбрав интересующий диапазон дат из раскрывающегося списка и нажав кнопку "Ввод!".


*Определитесь, кто Вы:
робот инопланетянин человек

Внимание! Время в таблицах - всемирное. Для получения местного времени необходимо прибавить поправку, которая равна -3 ч.

Смотрите также архив погоды в соседних городах и на ближайших метеорологических станциях:

Погода в Чамикале (Аргентина) (120 км)
Погода в Сан-Фернандо-дель-Валье-де-Катамарке (Аргентина) (134 км)
Погода в Сан-Хуане (Аргентина) (272 км)
Погода в Сантьяго-дель-Эстеро (Аргентина) (304 км)
Погода в Вилла де Мария дель Рио Секо (Аргентина) (308 км)
Погода в Вилла Долорес (Аргентина) (328 км)
Погода в Сан-Мигель-де-Тукумане (Аргентина) (328 км)
Погода в Кордове (Аргентина) (329 км)
Погода в Пиларе (Аргентина) (378 км)
Погода в Викунье (Чили) (383 км)

Пояснения к столбцам:

Ветер - указаны скорость ветра в м/с - средняя за 10 мин, порывы в срок и между сроками (в фигурных скобках) и направление, откуда дует ветер: С - северный, СВ - северо-восточный, В - восточный, ЮВ - юго-восточный, Ю - южный, ЮЗ - юго-западный, З - западный, СЗ - северо-западный.
Видимость - горизонтальная дальность видимости в метрах или километрах. При видимости от 1 до 10 км при отсутствии осадков обычно наблюдается дымка, при ухудшении видимости до 1 км и менее - туман. В сухую погоду видимость может ухудшаться дымом, пылью или мглою.
Явления - указаны атмосферные явления, наблюдавшиеся в срок или в последний час перед сроком; фигурными скобками обозначены явления, наблюдавшиеся между сроками (за 1-3 часа до срока); квадратными скобками обозначены град или гололедные отложения с указанием их диаметра в мм.
Облачность - указаны через наклонную черту общая и нижняя облачность в баллах и высота нижней границы облаков в метрах; квадратными скобками обозначены формы облаков: Ci - перистые, Cs - перисто-слоистые, Cc - перисто-кучевые, Ac - высококучевые, As - высокослоистые, Sc - слоисто-кучевые, Ns - слоисто-дождевые, Cu - кучевые, Cb - кучево-дождевые. Подробнее классификацию облаков см. в Атласе облаков (PDF).
T - Температура воздуха - температура, измеренная на высоте 2 м над землей.
Td - Температура точки росы - температура, при понижении до которой содержащийся в воздухе водяной пар достигнет насыщения.
f - Относительная влажность воздуха - влажноcть воздуха, измеренная на высоте 2 м над землей.
Te - Эффективная температура - температура, которую ощущает одетый по сезону человек в тени. Характеристика душности погоды. При расчете учитывается влияние влажности воздуха и скорости ветра на теплоощущения человека.
Tes - Эффективная температура на солнце - температура, которую ощущает человек, с поправкой на солнечный нагрев. Характеристика знойности погоды. Зависит от высоты солнца над горизонтом, облачности и скорости ветра. Ночью, в пасмурную погоду, а также при ветре 12 м/с и более поправка равна нулю.
P - Атмосферное давление - приведенное к уровню моря атмосферное давление.
Po - Атмосферное давление - измеренное на уровне метеостанции атмосферное давление.
Tmin - Минимальная температура - минимум температуры воздуха на высоте 2 м над землей.
Tmax - Максимальная температура - максимум температуры воздуха на высоте 2 м над землей.
R - Количество осадков - Количество выпавших осадков за период времени, мм. При наведении курсора мыши на число - период времени, за который выпало указанное количество осадков.
R24 - Количество осадков - Количество выпавших осадков за 24 часа, мм.
S - Снежный покров - Высота снежного покрова, см. При наведении курсора мыши на число - состояние снежного покрова и степень покрытия местности в баллах.